Location: Sungai Dangang
(2.7500°N, 113.8333°E)
Time: 04:37:28
(UTC+00:00)

Cosmos 1992 Rocket - Pass Details

Date: 16 May 2021
Orbit: 758 x 766 km, 74.0° (Epoch: 16 June)

Event Time Altitude Azimuth Distance (km) Brightness Sun altitude
Exits shadow 20:29:05 77° 237° (WSW) 779 3.8 -25.3°
Maximum altitude 20:29:23 80° 281° (WNW) 770 3.8 -25.2°
Drops below altitude 10° 20:34:33 10° 9° (N) 2,276 6.8 -24.0°
Sets 20:36:54 0° 10° (N) 3,199 7.7 -23.5°
